Location: Lucerne Valley
(34.4439°N, 116.9669°E)
Time: 08:07:42
(UTC-08:00)

Vanguard 3 - Visible Passes

Search period start: 15 December 2017 00:00
Search period end: 25 December 2017 00:00
Orbit: 509 x 3263 km, 33.3° (Epoch: 14 December)

Date Brightness Start Highest point End Pass type
(mag) Time Alt. Az. Time Alt. Az. Time Alt. Az.
15 Dec 10.0 02:34:25 10° SW 02:37:11 14° SSW 02:40:34 10° S visible
20 Dec 11.3 14:42:52 10° S 14:51:11 19° SSE 14:57:18 10° ESE visible
21 Dec 11.6 13:31:10 10° SSE 13:36:01 12° SSE 13:40:13 10° SE visible
22 Dec 11.0 14:24:21 10° SSW 14:35:21 25° SSE 14:42:58 10° ESE visible
23 Dec 11.4 13:10:59 10° S 13:20:04 17° SSE 13:27:14 10° ESE visible
24 Dec 10.8 14:06:10 10° SSW 14:19:24 31° SSE 14:28:14 10° E visible
